Location: Moscow
(55.7500°N, 37.5830°E)
Time: 08:05:13
(UTC+03:00)

Transit 2A - Pass Details

Date: 01 December 2021
Orbit: 591 x 967 km, 66.7° (Epoch: 17 January)

Event Time Altitude Azimuth Distance (km) Brightness Sun altitude
Exits shadow 03:36:05 25° 32° (NNE) 1,833 8.2 -40.3°
Drops below altitude 10° 03:38:43 10° 44° (NE) 2,702 9.4 -40.0°
Sets 03:41:27 0° 49° (NE) 3,663 10.3 -39.6°
